User: anonymous   Login
Location: Newark
(45.8667°N, 9.7333°E)
Time: 03:23:05
(UTC+00:00)
Language:

EO-79 - Orbit

View from above orbital plane
View from above orbital plane
View from above satellite
View from above satellite

Ground track
Ground track

The orbit data is extracted from the following two-line orbital elements,

1 40025U 14033R   20058.71677559  .00000214  00000-0  28707-4 0  9999
2 40025  97.9132 343.0644 0011310 308.5209  51.4993 14.89077223309120
Epoch (UTC): 27 February 2020 17:12:09
Eccentricity: 0.0011310
inclination: 97.9132°
perigee height: 593 km
apogee height: 609 km
right ascension of ascending node: 343.0644°
argument of perigee: 308.5209°
revolutions per day: 14.89077223
mean anomaly at epoch: 51.4993°
orbit number at epoch: 30912

The dashed part of the orbit path shows where the satellite is in the earth's shadow,  

DLR